sat.trackr.live / text

‹ back to catalog

STARLINK-36628

NORAD 67595 · 2026-018G

PAYLOAD ACTIVE UNKNOWN

§ Identity

Operator
Country
US
Launch date
2026-01-29
Launch site
AFWTR
Launch vehicle
Mass (kg)
RCS (m²)

Purposes: comms

External: N2YO · Heavens-Above · Gunter

§ Orbital elements

Epoch: 2026-09-19T10:09:57.210048Z

Period
93.91 min
Inclination
97.2875°
Eccentricity
0.0000948
Mean motion
15.33456946 rev/d
Perigee alt
464.9 km
Apogee alt
466.2 km
Semi-major
6,843.6 km
B*
5.5795e-4
RAAN
325.8687°
Arg perigee
105.9766°
Mean anomaly
254.1581°
Rev number
3,702

§ Raw data

STARLINK-366281 67595U 26018G   26262.42357882  .00017987  00000+0  55795-3 0  99912 67595  97.2875 325.8687 0000948 105.9766 254.1581 15.33456946 37020

JSON: /api/v1/satellites/67595 · /tle

For live sub-satellite position, see the globe view (requires WebGL).

§ Visibility from observer

Set your observer location to see the next 7 days of passes ≥ 10°. The values pass through the URL so the page stays shareable.

No JS? Fill the form by hand. The geolocation button needs JavaScript.